Regional Weather Roundup
Issued by NWS

Home | Current Version | Previous Version | Text Only | Print | Product List | Glossary Off
Versions: 1 2 3 4 5 6 7 8 9 10 11 12 13 14 15 16 17 18 19 20 21 22 23 24 25 26 27

000
ASUS45 KCYS 082110
RWRWY

WYOMING REGIONAL WEATHER ROUNDUP
NATIONAL WEATHER SERVICE CHEYENNE WY
200 PM MST THU DEC 08 2016

NOTE:  "FAIR" INDICATES FEW OR NO CLOUDS BELOW 12,000 FEET
WITH NO SIGNIFICANT WEATHER AND/OR OBSTRUCTIONS TO VISIBILITY.

WYZ001-082200-
YELLOWSTONE NATIONAL PARK

CITY           SKY/WX    TMP DP  RH WIND       PRES   REMARKS
LK YELLOWSTONE   N/A      9  -4  55 CALM      30.05F
W YELLOWSTONE  NOT AVBL

$$
WYZ002>013-054>058-071-098>099-082200-
NORTHERN WYOMING

CITY           SKY/WX    TMP DP  RH WIND       PRES   REMARKS
JACKSON        FAIR       1  -6  71 CALM      30.16F
CODY           FAIR       6  -4  63 S3        30.23F
GREYBULL       FAIR      10  -4  53 S8        30.34F WCI  -2
WORLAND        FAIR      11   1  64 CALM      30.31F
SHERIDAN       FAIR       6  -4  63 W3        30.35F
BUFFALO        FAIR       7  -3  64 SE9       30.27F WCI  -7
GILLETTE       FAIR       7  -1  70 S9        30.35F WCI  -7
HULETT         FAIR       9  -2  61 CALM      30.39F
NEWCASTLE      FAIR       9  -4  56 N5        30.40F WCI   0

$$
WYZ014>020-022>026-101>103-082200-
CENTRAL WYOMING

CITY           SKY/WX    TMP DP  RH WIND       PRES   REMARKS
BIG PINEY      PTSUNNY    9  -1  64 CALM      30.15F
PINEDALE       MOCLDY    10  -2  56 MISG      30.15F
DUBOIS         FAIR       9  -4  56 S10       30.04F WCI  -6
LANDER         FAIR       8  -2  63 NW5       30.19F WCI   0
RIVERTON       FAIR      12   0  58 VRB3      30.20F
CASPER         FAIR      -1  -8  72 CALM      30.25F
DOUGLAS        FAIR       1  -5  75 CALM      30.31F

$$
WYZ021-027>030-104>119-082200-
SOUTHERN WYOMING

CITY           SKY/WX    TMP DP  RH WIND       PRES   REMARKS
EVANSTON       LGT SNOW  10   2  69 E12       30.10F WCI  -5
FORT BRIDGER   CLOUDY     6   1  77 CALM      30.18S
ROCK SPRINGS   CLOUDY     9   1  70 CALM      30.15F
DIXON          FAIR      24   3  40 SW9       30.21F WCI  15
RAWLINS        FAIR      18  -1  43 CALM      30.15F
SARATOGA       FAIR      21   3  45 SE5       30.15F WCI  15
LARAMIE        FAIR      18  -2  41 S12       30.11F WCI   5
CHEYENNE       FAIR      10   3  73 S12       30.22F WCI  -5
TORRINGTON     FAIR      15  -3  44 SE9       30.38F WCI   3
PINE BLUFFS    FAIR      12   1  62 S7        30.33F WCI   2

$$




USA.gov is the U.S. government's official web portal to all federal, state and local government web resources and services.